Kelso, WA

1:34 AM PDT on August 27, 2016 (GMT -0700)
Kelso-Longview

Weather History for KKLS - December, 2011

Change the Weather History Date:

Saturday, December 31, 2011

  Actual Average Record
Temperature  
Mean Temperature 36 °F -  
Max Temperature 39 °F 43 °F 55 °F (1996)
Min Temperature 32 °F 33 °F 21 °F (2010)
Degree Days  
Heating Degree Days 30    
Moisture  
Dew Point 34 °F    
Average Humidity 92    
Maximum Humidity 100    
Minimum Humidity 87    
Precipitation  
Precipitation 0.01 in - - ()
Sea Level Pressure  
Sea Level Pressure 30.33 in    
Wind  
Wind Speed 3 mph (ESE)    
Max Wind Speed 8 mph    
Max Gust Speed -    
Visibility 8 miles    
Events      
Averages and records for this station are not official NWS values.
T = Trace of Precipitation, MM = Missing Value Source: NWS Daily Summary

Daily Weather History Graph

Daily Weather History Graph

Search for Another Location

Airport or City:

Trip Planner

Search our weather history database for the weather conditions in past years. The results will help you decide how hot, cold, wet, or windy it might be!

Date:

Astronomy

Dec. 31, 2011 Rise Set
Actual Time 7:53 AM PST 4:35 PM PST
Civil Twilight 7:19 AM PST 5:09 PM PST
Nautical Twilight 6:41 AM PST 5:47 PM PST
Astronomical Twilight 6:05 AM PST 6:24 PM PST
Moon 11:15 AM PST (12/31) No Moon Set
Length of Visible Light 9h 50m
Length of Day
8h 41m
Waxing Crescent, 46% of the Moon is Illuminated
Dec 31
Waxing Crescent
Dec 31
First Quarter
Jan 8
Full
Jan 16
Last Quarter
Jan 22
New

Hourly Weather History & Observations

Time (PST) Temp. Windchill Dew Point Humidity Pressure Visibility Wind Dir Wind Speed Gust Speed Precip Events Conditions
12:35 AM 37.4 °F 32.8 °F 33.8 °F 87% 30.33 in 10.0 mi SE 5.8 mph - N/A   Mostly Cloudy
12:55 AM 35.6 °F 32.8 °F 33.8 °F 93% 30.34 in 10.0 mi SE 3.5 mph - N/A   Mostly Cloudy
1:15 AM 35.6 °F 32.8 °F 33.8 °F 93% 30.35 in 10.0 mi SSE 3.5 mph - N/A   Mostly Cloudy
1:35 AM 35.6 °F 32.8 °F 35.6 °F 100% 30.37 in 8.0 mi SE 3.5 mph - 0.01 in   Overcast
1:55 AM 35.6 °F 30.7 °F 35.6 °F 100% 30.38 in 10.0 mi ESE 5.8 mph - 0.01 in   Mostly Cloudy
2:15 AM 35.6 °F 29.9 °F 33.8 °F 93% 30.38 in 10.0 mi SSE 6.9 mph - N/A   Mostly Cloudy
2:35 AM 35.6 °F 32.8 °F 33.8 °F 93% 30.39 in 10.0 mi ESE 3.5 mph - N/A   Scattered Clouds
2:55 AM 35.6 °F - 33.8 °F 93% 30.38 in 10.0 mi Calm Calm - N/A   Mostly Cloudy
3:15 AM 33.8 °F - 33.8 °F 100% 30.37 in 9.0 mi Calm Calm - N/A   Mostly Cloudy
4:35 AM 33.8 °F - 32.0 °F 93% 30.38 in 0.2 mi Calm Calm - N/A   Overcast
4:55 AM 33.8 °F 30.8 °F 32.0 °F 93% 30.38 in 0.2 mi South 3.5 mph - N/A   Overcast
5:15 AM 33.8 °F - 30.2 °F 87% 30.37 in 0.2 mi Calm Calm - N/A   Overcast
5:35 AM 32.0 °F 28.7 °F 30.2 °F 93% 30.37 in 0.5 mi East 3.5 mph - N/A   Overcast
5:55 AM 32.0 °F 27.5 °F 30.2 °F 93% 30.37 in 1.0 mi SE 4.6 mph - N/A   Overcast
6:15 AM 33.8 °F 27.0 °F 32.0 °F 93% 30.38 in 1.8 mi SE 8.1 mph - N/A   Overcast
6:35 AM 33.8 °F 27.0 °F 32.0 °F 93% 30.38 in 2.5 mi SE 8.1 mph - N/A   Overcast
7:15 AM 33.8 °F 29.6 °F 32.0 °F 93% 30.38 in 2.0 mi SE 4.6 mph - N/A   Overcast
7:35 AM 33.8 °F 28.6 °F 32.0 °F 93% 30.39 in 10.0 mi SE 5.8 mph - N/A   Overcast
7:55 AM 33.8 °F 30.8 °F 32.0 °F 93% 30.40 in 10.0 mi SE 3.5 mph - N/A   Overcast
8:35 AM 35.6 °F 30.7 °F 33.8 °F 93% 30.40 in 10.0 mi SSE 5.8 mph - N/A   Overcast
8:55 AM 35.6 °F - 33.8 °F 93% 30.39 in 10.0 mi Calm Calm - N/A   Mostly Cloudy
9:15 AM 35.6 °F 32.8 °F 33.8 °F 93% 30.40 in 10.0 mi SE 3.5 mph - N/A   Mostly Cloudy
9:35 AM 35.6 °F 32.8 °F 33.8 °F 93% 30.40 in 10.0 mi SE 3.5 mph - N/A   Overcast
9:55 AM 35.6 °F 32.8 °F 33.8 °F 93% 30.40 in 10.0 mi SE 3.5 mph - N/A   Overcast
10:15 AM 35.6 °F - 33.8 °F 93% 30.40 in 9.0 mi Calm Calm - N/A   Overcast
10:35 AM 37.4 °F - 35.6 °F 93% 30.40 in 8.0 mi Calm Calm - N/A   Mostly Cloudy
10:55 AM 37.4 °F - 35.6 °F 93% 30.40 in 8.0 mi Calm Calm - N/A   Partly Cloudy
11:15 AM 37.4 °F - 35.6 °F 93% 30.39 in 8.0 mi Calm Calm - N/A   Scattered Clouds
11:35 AM 37.4 °F - 35.6 °F 93% 30.39 in 10.0 mi Calm Calm - N/A   Scattered Clouds
11:55 AM 37.4 °F 34.9 °F 35.6 °F 93% 30.38 in 10.0 mi NW 3.5 mph - N/A   Mostly Cloudy
12:15 PM 37.4 °F 32.8 °F 35.6 °F 93% 30.37 in 9.0 mi NNW 5.8 mph - N/A   Mostly Cloudy
12:35 PM 37.4 °F 34.9 °F 35.6 °F 93% 30.36 in 10.0 mi North 3.5 mph - N/A   Scattered Clouds
1:15 PM 39.2 °F 37.0 °F 37.4 °F 93% 30.33 in 10.0 mi North 3.5 mph - N/A   Scattered Clouds
1:35 PM 39.2 °F 37.0 °F 35.6 °F 87% 30.32 in 10.0 mi North 3.5 mph - N/A   Mostly Cloudy
1:55 PM 39.2 °F 37.0 °F 35.6 °F 87% 30.31 in 10.0 mi NNW 3.5 mph - N/A   Overcast
2:15 PM 39.2 °F 35.0 °F 35.6 °F 87% 30.30 in 10.0 mi NNW 5.8 mph - N/A   Overcast
2:35 PM 39.2 °F 37.0 °F 35.6 °F 87% 30.29 in 10.0 mi North 3.5 mph - N/A   Mostly Cloudy
2:55 PM 39.2 °F - 35.6 °F 87% 30.30 in 10.0 mi Calm Calm - N/A   Partly Cloudy
3:15 PM 39.2 °F - 35.6 °F 87% 30.30 in 10.0 mi Calm Calm - N/A   Clear
3:55 PM 39.2 °F - 35.6 °F 87% 30.30 in 10.0 mi Calm Calm - N/A   Overcast
4:15 PM 39.2 °F 37.0 °F 35.6 °F 87% 30.29 in 10.0 mi SE 3.5 mph - N/A   Overcast
4:35 PM 39.2 °F - 35.6 °F 87% 30.29 in 10.0 mi Calm Calm - N/A   Scattered Clouds
4:55 PM 37.4 °F - 35.6 °F 93% 30.27 in 10.0 mi Calm Calm - N/A   Clear
5:15 PM 35.6 °F - 33.8 °F 93% 30.27 in 10.0 mi Calm Calm - N/A   Clear
5:35 PM 37.4 °F - 35.6 °F 93% 30.27 in 8.0 mi Calm Calm - N/A   Clear
5:55 PM 37.4 °F - 35.6 °F 93% 30.27 in 8.0 mi Calm Calm - N/A   Partly Cloudy
6:35 PM 35.6 °F - 33.8 °F 93% 30.25 in 5.0 mi Calm Calm - N/A   Overcast
6:55 PM 35.6 °F - 33.8 °F 93% 30.25 in 6.0 mi Calm Calm - N/A   Overcast
7:35 PM 37.4 °F - 35.6 °F 93% 30.24 in 9.0 mi Calm Calm - N/A   Overcast
8:15 PM 37.4 °F - 35.6 °F 93% 30.25 in 8.0 mi Calm Calm - N/A   Mostly Cloudy
8:35 PM 35.6 °F - 35.6 °F 100% 30.25 in 7.0 mi Calm Calm - N/A   Overcast
8:55 PM 37.4 °F - 35.6 °F 93% 30.25 in 8.0 mi Calm Calm - N/A   Overcast
9:15 PM 37.4 °F - 35.6 °F 93% 30.24 in 6.0 mi Calm Calm - N/A   Overcast
9:35 PM 37.4 °F 34.9 °F 35.6 °F 93% 30.22 in 10.0 mi NNW 3.5 mph - N/A   Overcast
9:55 PM 37.4 °F 34.9 °F 35.6 °F 93% 30.24 in 10.0 mi SSE 3.5 mph - N/A   Overcast
10:15 PM 37.4 °F - 35.6 °F 93% 30.24 in 10.0 mi Calm Calm - N/A   Overcast
11:15 PM 37.4 °F - 35.6 °F 93% 30.25 in 10.0 mi Calm Calm - N/A   Overcast
11:35 PM 37.4 °F 33.8 °F 35.6 °F 93% 30.24 in 9.0 mi North 4.6 mph - N/A   Overcast